Location: Doughton Park
(36.4224°N, 81.1835°W)
Time: 23:06:04
(UTC-05:00)

Amateur Radio Satellites - All Passes

Search period start: 18 December 2014 22:36
Search period end: 19 December 2014 22:36
Location: Doughton Park, 36.4224°N, 81.1835°W

Satellite Date Start Highest point End Downlink Frequencies (MHz)
Time Altitude Azimuth
AIST 2 18 Dec 22:38:28 22:41:09 16° 48° (NE) 22:43:49 435.215
BEESAT 3 18 Dec 22:42:55 22:46:49 37° 55° (NE) 22:50:40 437.485
POPSAT HIP 1 18 Dec 22:44:42 22:48:23 28° 97° (E) 22:52:04 437.405
UNISAT 6 18 Dec 22:47:11 22:51:47 51° 100° (E) 22:56:22 437.425
UWE-3 18 Dec 22:58:02 23:00:18 14° 268° (W) 23:02:36 435.000/436.395/437.385
FUNcube-1 18 Dec 23:02:26 23:04:53 15° 267° (W) 23:07:22 145.935
SPROUT 18 Dec 23:04:21 23:07:36 22° 69° (ENE) 23:10:52 437.525
RS-15 18 Dec 23:06:16 23:16:40 43° 252° (WSW) 23:27:31 29.354- 29.394
TISAT 1 18 Dec 23:07:39 23:11:07 25° 70° (ENE) 23:14:36 437.305
DANDE 18 Dec 23:09:01 23:13:39 17° 276° (W) 23:18:34 436.750
AISAT 18 Dec 23:10:18 23:13:47 23° 264° (W) 23:17:17 437.250
DUCHIFAT 1 18 Dec 23:13:23 23:17:37 63° 101° (E) 23:21:49 145.980
ANTELSAT 18 Dec 23:18:50 23:23:32 71° 284° (WNW) 23:28:14 437.575/2403.000
PCSat 18 Dec 23:20:37 23:25:44 40° 57° (ENE) 23:30:48 145.827
BEESAT 2 18 Dec 23:20:40 23:24:53 88° 61° (ENE) 23:29:00 435.950
BUGSAT 1 18 Dec 23:22:40 23:26:42 64° 101° (E) 23:30:44 437.445
CUBEBUG 1 18 Dec 23:23:03 23:27:15 45° 261° (W) 23:31:27 437.445
SO-50 18 Dec 23:23:13 23:25:21 13° 317° (NW) 23:27:30 436.795
QB50P2 18 Dec 23:25:22 23:29:39 90° 282° (WNW) 23:33:56 145.880/145.840
POLYITAN 1 18 Dec 23:33:27 23:37:43 72° 284° (WNW) 23:42:00 437.675
YUBILEINY 18 Dec 23:35:21 23:43:16 40° 87° (E) 23:51:10 435.215
NANOSAT C BR1 18 Dec 23:37:36 23:41:49 65° 285° (WNW) 23:46:02 145.865
QB50P1 18 Dec 23:51:47 23:55:49 43° 287° (WNW) 23:59:52 145.935-145.965
TIGRISAT 18 Dec 23:56:15 00:00:17 29° 290° (WNW) 00:04:19 435.000
ESTCUBE 1 19 Dec 00:00:15 00:03:21 18° 266° (W) 00:06:27 437.505/2401.250
M-CUBED/EXP-1 PRIME 19 Dec 00:12:20 00:15:16 16° 60° (ENE) 00:18:14 437.505
AIST 2 19 Dec 00:15:55 00:20:04 50° 245° (WSW) 00:24:08 435.215
POPSAT HIP 1 19 Dec 00:20:53 00:24:06 21° 291° (WNW) 00:27:19 437.405
BEESAT 3 19 Dec 00:21:59 00:24:41 17° 251° (WSW) 00:27:20 437.485
UNISAT 6 19 Dec 00:25:27 00:28:06 15° 294° (WNW) 00:30:46 437.425
ITUPSAT 1 19 Dec 00:32:48 00:37:07 34° 70° (ENE) 00:41:26 437.325
SWISSCUBE 19 Dec 00:33:04 00:37:28 38° 71° (ENE) 00:41:54 437.505
SPROUT 19 Dec 00:39:52 00:43:31 27° 263° (W) 00:47:12 437.525
O/OREOS (USA 219) 19 Dec 00:41:32 00:45:34 35° 104° (ESE) 00:49:37 437.305
TISAT 1 19 Dec 00:43:34 00:46:52 22° 264° (W) 00:50:12 437.305
DUCHIFAT 1 19 Dec 00:52:28 00:52:54 10° 296° (WNW) 00:53:21 145.980
BEESAT 19 Dec 00:58:07 01:02:51 65° 74° (ENE) 01:07:36 436.000
KKS-1 19 Dec 01:00:18 01:02:00 12° 64° (ENE) 01:03:44 437.445
PCSat 19 Dec 01:04:34 01:08:52 24° 253° (WSW) 01:13:08 145.827
Oscar 19 19 Dec 01:07:51 01:12:06 25° 95° (E) 01:16:20 437.125/150
AUBIESAT-1 19 Dec 01:20:49 01:25:33 73° 71° (ENE) 01:30:26 437.475
ITAMSAT 1 19 Dec 01:21:50 01:22:58 11° 91° (E) 01:24:06 435.822/435.867
YUBILEINY 19 Dec 01:31:55 01:39:57 40° 285° (WNW) 01:48:01 435.215
M-CUBED/EXP-1 PRIME 19 Dec 01:45:03 01:49:43 58° 255° (WSW) 01:54:34 437.505
ITUPSAT 1 19 Dec 02:11:19 02:15:01 22° 265° (W) 02:18:45 437.325
SWISSCUBE 19 Dec 02:11:57 02:15:25 20° 266° (W) 02:18:53 437.505
O/OREOS (USA 219) 19 Dec 02:21:49 02:25:02 19° 300° (WNW) 02:28:16 437.305
KKS-1 19 Dec 02:33:47 02:38:07 57° 259° (W) 02:42:30 437.445
STARS 19 Dec 02:34:13 02:38:35 87° 256° (WSW) 02:43:00 437.465
BEESAT 19 Dec 02:39:43 02:41:04 11° 269° (W) 02:42:26 436.000
Gurwin Techsat 1B 19 Dec 02:41:40 02:46:46 46° 99° (E) 02:51:49 435.225
Oscar 19 19 Dec 02:46:47 02:51:26 34° 290° (WNW) 02:56:05 437.125/150
VERMONT LUNAR 19 Dec 02:50:11 02:52:46 19° 145° (SE) 02:55:22 437.305
PHONESAT 2.4 19 Dec 02:55:34 02:57:30 14° 143° (SE) 02:59:26 2401.200-2431.200
ITAMSAT 1 19 Dec 02:57:47 03:02:57 75° 285° (WNW) 03:08:05 435.822/435.867
AUBIESAT-1 19 Dec 02:59:36 03:00:55 11° 266° (W) 03:02:15 437.475
MOZHAYETS 4 19 Dec 03:31:09 03:34:00 16° 66° (ENE) 03:36:52
AIST 1 19 Dec 03:46:36 03:50:37 39° 79° (E) 03:54:36
HORYU 2 19 Dec 03:57:30 04:02:02 73° 285° (WNW) 04:06:31 437.375
AO-7 19 Dec 03:59:17 04:07:01 40° 100° (E) 04:14:41 29.400- 29.500
Gurwin Techsat 1B 19 Dec 04:22:33 04:26:21 20° 294° (WNW) 04:30:09 435.225
VERMONT LUNAR 19 Dec 04:27:16 04:30:48 89° 347° (NNW) 04:34:21 437.305
PHONESAT 2.4 19 Dec 04:32:10 04:35:46 70° 156° (SSE) 04:39:23 2401.200-2431.200
JAS-2 19 Dec 04:38:34 04:42:56 23° 93° (E) 04:47:03 435.910
PRISM 19 Dec 04:55:42 04:58:38 19° 68° (ENE) 05:01:36 437.425
MOZHAYETS 4 19 Dec 05:06:23 05:10:49 45° 261° (W) 05:15:18
AIST 1 19 Dec 05:25:47 05:27:51 13° 274° (W) 05:29:55
GONETS M04 19 Dec 05:29:25 05:37:45 48° 89° (E) 05:46:05
Cubesat XI-IV 19 Dec 05:40:07 05:43:41 18° 93° (E) 05:47:13 437.490
AO-7 19 Dec 05:52:01 05:59:43 43° 296° (WNW) 06:07:24 29.400- 29.500
STRAND 1 19 Dec 05:52:04 05:56:39 35° 70° (ENE) 06:01:15 437.568
VERMONT LUNAR 19 Dec 06:05:58 06:09:21 41° 356° (N) 06:12:44 437.305
PHONESAT 2.4 19 Dec 06:11:06 06:14:36 45° 353° (N) 06:18:07 2401.200-2431.200
CUTE-I 19 Dec 06:12:50 06:17:45 38° 98° (E) 06:22:38 437.470
SO-50 19 Dec 06:13:42 06:18:15 37° 54° (NE) 06:22:48 436.795
JAS-2 19 Dec 06:23:04 06:28:11 36° 291° (WNW) 06:32:56 435.910
CUBESAT XI-V 19 Dec 06:24:06 06:28:47 83° 76° (ENE) 06:33:28 437.345
PRISM 19 Dec 06:30:07 06:33:55 32° 262° (W) 06:37:44 437.425
Cubesat XI-IV 19 Dec 07:18:53 07:23:59 49° 288° (WNW) 07:29:05 437.490
GONETS M04 19 Dec 07:26:56 07:34:42 34° 287° (WNW) 07:42:32
STRAND 1 19 Dec 07:31:45 07:35:51 24° 264° (W) 07:39:58 437.568
VERMONT LUNAR 19 Dec 07:44:31 07:48:01 56° 13° (NNE) 07:51:30 437.305
PHONESAT 2.4 19 Dec 07:50:06 07:53:39 49° 10° (N) 07:57:12 2401.200-2431.200
CUTE-I 19 Dec 07:53:22 07:57:34 24° 293° (WNW) 08:01:46 437.470
SO-50 19 Dec 07:54:41 07:58:36 24° 249° (WSW) 08:02:30 436.795
BRITE-PL 19 Dec 08:28:12 08:32:04 24° 96° (E) 08:36:08 437.365/2234.400
AAUSAT CUBESAT 2 19 Dec 08:49:25 08:52:35 20° 95° (E) 08:55:43 437.432
CANX-2 19 Dec 08:56:21 09:00:30 44° 99° (E) 09:04:36 2200.000
GOMX 1 19 Dec 09:02:43 09:07:13 40° 99° (E) 09:11:59 467.674
HO-68 19 Dec 09:10:50 09:17:55 63° 103° (ESE) 09:24:57 435.675
UWE-3 19 Dec 09:14:50 09:15:48 11° 91° (E) 09:16:45 435.000/436.395/437.385
TIGRISAT 19 Dec 09:17:32 09:20:10 16° 66° (ENE) 09:22:50 435.000
COMPASS 1 19 Dec 09:22:43 09:26:56 59° 100° (E) 09:31:07 437.405
VERMONT LUNAR 19 Dec 09:22:58 09:26:17 39° 209° (SSW) 09:29:36 437.305
SEEDS 19 Dec 09:25:59 09:30:18 79° 102° (ESE) 09:34:34 437.485
CUTE 1.7 + AOD 2 19 Dec 09:27:16 09:31:36 85° 283° (WNW) 09:35:54 437.475
PHONESAT 2.4 19 Dec 09:28:51 09:32:24 54° 206° (SSW) 09:35:58 2401.200-2431.200
DX 1 19 Dec 09:33:21 09:36:50 23° 96° (E) 09:40:17 434.975-435.025
DOVE 4 19 Dec 09:35:27 09:40:13 66° 101° (E) 09:45:14 437.250
POPSAT HIP 1 19 Dec 09:36:34 09:39:11 16° 67° (ENE) 09:41:49 437.405
MaSat-1 19 Dec 09:40:51 09:42:55 25° 296° (WNW) 09:44:54 437.345
UNISAT 6 19 Dec 09:44:22 09:48:14 32° 71° (ENE) 09:52:11 437.425
DELFI C3 19 Dec 09:49:08 09:53:01 40° 98° (E) 09:56:53 145.870
YUBILEINY 19 Dec 09:49:57 09:54:59 16° 65° (ENE) 09:59:59 435.215
CUSAT 1 19 Dec 09:52:47 09:56:00 56° 94° (E) 10:00:15 437.405
Oscar 11 19 Dec 09:58:02 10:02:23 64° 101° (E) 10:06:42 145.826/435.025
HUMSAT D 19 Dec 10:02:08 10:05:00 17° 94° (E) 10:07:52 437.325/437.525
DUCHIFAT 1 19 Dec 10:04:05 10:07:51 33° 72° (ENE) 10:11:38 145.980
UKube-1 19 Dec 10:05:34 10:09:49 54° 101° (E) 10:14:03 .
BRITE-PL 19 Dec 10:06:23 10:10:31 32° 288° (WNW) 10:14:57 437.365/2234.400
CUBEBUG 2 19 Dec 10:06:37 10:11:09 51° 100° (E) 10:15:45 437.445
BUGSAT 1 19 Dec 10:10:54 10:14:33 31° 72° (ENE) 10:18:10 437.445
CINEMA 3 19 Dec 10:12:40 10:17:25 84° 283° (WNW) 10:22:21 145.822/145.860
ANTELSAT 19 Dec 10:15:35 10:19:54 76° 76° (ENE) 10:24:21 437.575/2403.000
QB50P2 19 Dec 10:16:08 10:20:11 48° 74° (ENE) 10:24:15 145.880/145.840
VELOX 1 19 Dec 10:21:09 10:24:51 26° 96° (E) 10:28:32 145.980
ZACube-1 19 Dec 10:24:08 10:28:37 57° 100° (E) 10:33:07 437.345
POLYITAN 1 19 Dec 10:24:18 10:28:26 61° 75° (ENE) 10:32:36 437.675
AAUSAT CUBESAT 2 19 Dec 10:24:34 10:28:13 29° 289° (WNW) 10:31:51 437.432
NANOSAT C BR1 19 Dec 10:27:54 10:32:04 66° 76° (ENE) 10:36:15 145.865
CANX-2 19 Dec 10:33:40 10:36:01 15° 294° (WNW) 10:38:21 2200.000
DANDE 19 Dec 10:37:17 10:40:21 43° 285° (WNW) 10:44:20 436.750
GOMX 1 19 Dec 10:41:39 10:45:05 20° 291° (WNW) 10:48:40 467.674
QB50P1 19 Dec 10:41:59 10:46:12 82° 258° (WSW) 10:50:25 145.935-145.965
UWE-3 19 Dec 10:48:06 10:52:39 65° 285° (WNW) 10:57:16 435.000/436.395/437.385
FUNcube-1 19 Dec 10:51:21 10:55:52 71° 284° (WNW) 11:00:26 145.935
TIGRISAT 19 Dec 10:52:29 10:56:32 40° 262° (W) 11:00:42 435.000
O/OREOS (USA 219) 19 Dec 10:53:34 10:57:54 44° 66° (ENE) 11:02:14 437.305
HO-68 19 Dec 10:59:40 11:05:02 24° 299° (WNW) 11:10:23 435.675
COMPASS 1 19 Dec 11:01:05 11:02:06 11° 295° (WNW) 11:03:08 437.405
AISAT 19 Dec 11:02:52 11:07:19 83° 102° (ESE) 11:11:45 437.250
DX 1 19 Dec 11:09:22 11:13:00 26° 290° (WNW) 11:16:37 434.975-435.025
PHONESAT 2.4 19 Dec 11:10:01 11:10:35 10° 219° (SW) 11:11:10 2401.200-2431.200
POPSAT HIP 1 19 Dec 11:10:53 11:14:46 36° 262° (W) 11:18:40 437.405
CUBEBUG 1 19 Dec 11:14:43 11:18:46 38° 98° (E) 11:22:47 437.445
RS-15 19 Dec 11:14:46 11:24:39 41° 108° (ESE) 11:34:28 29.354- 29.394
DOVE 4 19 Dec 11:15:29 11:17:29 13° 294° (WNW) 11:19:31 437.250
UNISAT 6 19 Dec 11:21:59 11:25:05 19° 266° (W) 11:28:13 437.425
DELFI C3 19 Dec 11:25:41 11:27:55 14° 293° (WNW) 11:30:09 145.870
50 SAT 19 Dec 11:26:22 11:30:27 57° 285° (WNW) 11:34:31 437.505
HUMSAT D 19 Dec 11:36:55 11:40:52 35° 288° (WNW) 11:44:49 437.325/437.525
Oscar 11 19 Dec 11:37:05 11:37:58 11° 296° (WNW) 11:38:51 145.826/435.025
DUCHIFAT 1 19 Dec 11:41:02 11:43:46 17° 266° (W) 11:46:32 145.980
UKube-1 19 Dec 11:43:45 11:45:29 12° 296° (WNW) 11:47:13 .
YUBILEINY 19 Dec 11:44:14 11:52:58 90° 84° (E) 12:01:40 435.215
CUBEBUG 2 19 Dec 11:44:49 11:47:25 15° 294° (WNW) 11:50:03 437.445
BUGSAT 1 19 Dec 11:47:22 11:50:05 17° 265° (W) 11:52:47 437.445
ESTCUBE 1 19 Dec 11:54:04 11:58:32 70° 285° (WNW) 12:02:59 437.505/2401.250
QB50P2 19 Dec 11:54:47 11:56:20 12° 268° (W) 11:57:54 145.880/145.840
VELOX 1 19 Dec 11:57:44 12:01:19 25° 291° (WNW) 12:04:54 145.980
ZACube-1 19 Dec 12:02:28 12:04:29 13° 295° (WNW) 12:06:31 437.345
Oscar 19 19 Dec 12:22:22 12:26:42 29° 68° (ENE) 12:31:05 437.125/150
SPROUT 19 Dec 12:28:32 12:32:47 60° 101° (E) 12:37:02 437.525
TISAT 1 19 Dec 12:30:04 12:34:17 68° 102° (ESE) 12:38:29 437.305
O/OREOS (USA 219) 19 Dec 12:34:26 12:36:52 15° 261° (W) 12:39:19 437.305
ITAMSAT 1 19 Dec 12:36:46 12:39:30 15° 63° (ENE) 12:42:13 435.822/435.867
BEESAT 3 19 Dec 12:37:17 12:39:12 13° 108° (ESE) 12:41:07 437.485
SWISSCUBE 19 Dec 12:38:25 12:40:00 12° 91° (E) 12:41:34 437.505
ITUPSAT 1 19 Dec 12:39:27 12:39:48 10° 91° (E) 12:40:08 437.325
CUBEBUG 1 19 Dec 12:52:04 12:54:49 17° 293° (WNW) 12:57:33 437.445
BEESAT 19 Dec 13:02:02 13:05:33 20° 95° (E) 13:09:02 436.000
ISS 19 Dec 13:07:10 13:09:32 18° 129° (SE) 13:11:53 145.825
BEESAT 2 19 Dec 13:13:53 13:17:30 31° 113° (ESE) 13:21:11 435.950
RS-15 19 Dec 13:26:02 13:36:37 53° 308° (NW) 13:47:17 29.354- 29.394
M-CUBED/EXP-1 PRIME 19 Dec 13:32:53 13:35:11 14° 96° (E) 13:37:23 437.505
JUGNU 19 Dec 13:35:00 13:38:13 15° 175° (S) 13:41:24 437.505
YUBILEINY 19 Dec 13:44:01 13:48:26 15° 282° (WNW) 13:52:53 435.215
PCSat 19 Dec 13:59:27 14:04:45 62° 113° (ESE) 14:10:07 145.827
Gurwin Techsat 1B 19 Dec 14:00:11 14:05:22 56° 73° (ENE) 14:10:33 435.225
Oscar 19 19 Dec 14:01:28 14:05:55 30° 263° (W) 14:10:25 437.125/150
SPROUT 19 Dec 14:07:14 14:08:20 11° 295° (WNW) 14:09:26 437.525
AIST 2 19 Dec 14:11:35 14:15:44 64° 117° (ESE) 14:19:59 435.215
BEESAT 3 19 Dec 14:12:58 14:16:55 47° 303° (WNW) 14:20:56 437.485
ITAMSAT 1 19 Dec 14:13:16 14:18:24 64° 258° (WSW) 14:23:33 435.822/435.867
ITUPSAT 1 19 Dec 14:13:22 14:18:07 69° 285° (WNW) 14:22:50 437.325
SWISSCUBE 19 Dec 14:13:31 14:18:13 62° 286° (WNW) 14:22:53 437.505
STARS 19 Dec 14:27:38 14:31:01 21° 95° (E) 14:34:23 437.465
KKS-1 19 Dec 14:27:49 14:31:51 32° 98° (E) 14:35:52 437.445
SRMSAT 19 Dec 14:36:13 14:39:02 14° 172° (S) 14:41:51 437.500
BEESAT 19 Dec 14:39:07 14:43:27 36° 289° (WNW) 14:47:46 436.000
AUBIESAT-1 19 Dec 14:41:32 14:45:53 90° 107° (ESE) 14:49:49 437.475
ISS 19 Dec 14:42:49 14:45:54 37° 324° (NW) 14:49:00 145.825
JAS-2 19 Dec 14:50:19 14:52:52 12° 58° (ENE) 14:55:21 435.910
BEESAT 2 19 Dec 14:52:33 14:55:46 22° 309° (NW) 14:59:03 435.950
HORYU 2 19 Dec 14:53:23 14:57:49 75° 76° (ENE) 15:02:18 437.375
AO-7 19 Dec 14:55:27 15:03:09 44° 64° (ENE) 15:10:54 29.400- 29.500
M-CUBED/EXP-1 PRIME 19 Dec 15:06:21 15:10:28 41° 293° (WNW) 15:14:14 437.505
JUGNU 19 Dec 15:23:18 15:26:27 15° 185° (S) 15:29:35 437.505
Gurwin Techsat 1B 19 Dec 15:42:34 15:45:38 16° 268° (W) 15:48:43 435.225
GONETS M04 19 Dec 15:43:59 15:50:04 20° 67° (ENE) 15:56:04
PCSat 19 Dec 15:44:54 15:48:36 18° 311° (NW) 15:52:20 145.827
RS-15 19 Dec 15:45:41 15:52:23 18° 338° (NNW) 15:59:11 29.354- 29.394
AIST 2 19 Dec 15:52:40 15:54:47 13° 314° (NW) 15:56:56 435.215
STARS 19 Dec 16:03:36 16:07:29 30° 290° (WNW) 16:11:20 437.465
KKS-1 19 Dec 16:04:58 16:08:15 20° 292° (WNW) 16:11:31 437.445
AIST 1 19 Dec 16:13:50 16:17:33 28° 90° (E) 16:21:16
SRMSAT 19 Dec 16:24:07 16:27:25 15° 183° (S) 16:30:42 437.500
JAS-2 19 Dec 16:29:08 16:36:49 70° 74° (ENE) 16:43:56 435.910
AO-7 19 Dec 16:48:21 16:55:54 38° 261° (W) 17:03:33 29.400- 29.500
Cubesat XI-IV 19 Dec 16:59:38 17:03:52 25° 67° (ENE) 17:08:05 437.490
MOZHAYETS 4 19 Dec 17:04:07 17:08:38 51° 100° (E) 17:13:06
CUTE-I 19 Dec 17:32:13 17:37:19 49° 72° (ENE) 17:42:25 437.470
GONETS M04 19 Dec 17:39:02 17:47:47 77° 266° (W) 17:56:26
AIST 1 19 Dec 17:51:52 17:55:10 21° 285° (WNW) 17:58:29
RS-15 19 Dec 18:05:30 18:11:28 15° 16° (NNE) 18:17:32 29.354- 29.394
STRAND 1 19 Dec 18:06:39 18:09:13 14° 92° (E) 18:11:46 437.568
SRMSAT 19 Dec 18:14:31 18:15:46 11° 193° (SSW) 18:17:00 437.500
PRISM 19 Dec 18:15:32 18:19:28 41° 99° (E) 18:23:21 437.425
JAS-2 19 Dec 18:16:35 18:22:07 21° 267° (W) 18:27:27 435.910
CUBESAT XI-V 19 Dec 18:24:14 18:28:00 25° 95° (E) 18:31:45 437.345
Cubesat XI-IV 19 Dec 18:38:47 18:43:42 38° 262° (W) 18:48:38 437.490
MOZHAYETS 4 19 Dec 18:42:56 18:45:23 14° 295° (WNW) 18:47:49
MaSat-1 19 Dec 19:13:31 19:15:54 48° 248° (WSW) 19:18:25 437.345
CUTE-I 19 Dec 19:14:01 19:17:36 18° 267° (W) 19:21:11 437.470
DANDE 19 Dec 19:36:36 19:42:03 20° 69° (ENE) 19:47:54 436.750
HO-68 19 Dec 19:36:53 19:43:17 37° 65° (ENE) 19:49:41 435.675
ISS 19 Dec 19:37:30 19:39:09 13° 24° (NNE) 19:40:48 145.825
BRITE-PL 19 Dec 19:38:21 19:41:11 18° 69° (ENE) 19:43:59 437.365/2234.400
GONETS M04 19 Dec 19:40:16 19:42:59 12° 284° (WNW) 19:45:43
AAUSAT CUBESAT 2 19 Dec 19:40:41 19:41:44 11° 65° (ENE) 19:42:47 437.432
STRAND 1 19 Dec 19:43:44 19:48:44 59° 287° (WNW) 19:53:43 437.568
CANX-2 19 Dec 19:47:38 19:51:02 24° 70° (ENE) 19:54:27 2200.000
PRISM 19 Dec 19:52:23 19:54:37 14° 294° (WNW) 19:56:51 437.425
CUBESAT XI-V 19 Dec 20:01:29 20:05:22 28° 290° (WNW) 20:09:14 437.345
GOMX 1 19 Dec 20:09:44 20:13:18 28° 71° (ENE) 20:16:51 467.674
COMPASS 1 19 Dec 20:12:17 20:15:56 29° 71° (ENE) 20:19:37 437.405
SEEDS 19 Dec 20:16:00 20:19:56 39° 73° (ENE) 20:23:54 437.485
RS-15 19 Dec 20:17:38 20:28:09 42° 48° (NE) 20:39:03 29.354- 29.394
CUTE 1.7 + AOD 2 19 Dec 20:17:48 20:21:53 48° 74° (ENE) 20:26:01 437.475
SO-50 19 Dec 20:27:14 20:30:28 20° 109° (ESE) 20:33:45 436.795
DX 1 19 Dec 20:27:43 20:30:20 16° 66° (ENE) 20:32:57 434.975-435.025
CUSAT 1 19 Dec 20:31:54 20:39:33 56° 78° (ENE) 20:47:52 437.405
DELFI C3 19 Dec 20:36:10 20:39:06 19° 69° (ENE) 20:42:03 145.870
DOVE 4 19 Dec 20:39:39 20:43:36 45° 74° (ENE) 20:47:35 437.250
Oscar 11 19 Dec 20:50:35 20:54:31 35° 72° (ENE) 20:58:29 145.826/435.025
UKube-1 19 Dec 20:58:29 21:02:23 34° 71° (ENE) 21:06:17 .
CUBEBUG 2 19 Dec 21:03:24 21:07:00 29° 71° (ENE) 21:10:41 437.445
CINEMA 3 19 Dec 21:12:37 21:16:42 65° 76° (ENE) 21:20:53 145.822/145.860
AAUSAT CUBESAT 2 19 Dec 21:12:44 21:16:51 58° 260° (W) 21:21:02 437.432
ISS 19 Dec 21:12:54 21:16:10 84° 41° (NE) 21:19:26 145.825
BRITE-PL 19 Dec 21:15:47 21:19:31 30° 263° (W) 21:23:11 437.365/2234.400
VELOX 1 19 Dec 21:17:31 21:20:31 18° 67° (ENE) 21:23:32 145.980
DANDE 19 Dec 21:18:15 21:26:04 85° 263° (W) 21:34:48 436.750
ZACube-1 19 Dec 21:18:29 21:22:09 31° 71° (ENE) 21:25:54 437.345
CANX-2 19 Dec 21:23:20 21:26:51 25° 264° (W) 21:30:24 2200.000
HO-68 19 Dec 21:24:14 21:30:50 39° 261° (W) 21:37:30 435.675
BEESAT 2 19 Dec 21:37:44 21:39:20 12° 45° (NE) 21:40:54 435.950
UWE-3 19 Dec 21:43:08 21:47:16 76° 76° (ENE) 21:51:31 435.000/436.395/437.385
FUNcube-1 19 Dec 21:45:02 21:49:09 65° 76° (ENE) 21:53:21 145.935
GOMX 1 19 Dec 21:48:32 21:51:27 19° 266° (W) 21:54:23 467.674
COMPASS 1 19 Dec 21:48:35 21:51:39 20° 266° (W) 21:54:45 437.405
SEEDS 19 Dec 21:53:29 21:55:54 15° 267° (W) 21:58:19 437.485
CUTE 1.7 + AOD 2 19 Dec 21:56:25 21:58:03 12° 268° (W) 21:59:43 437.475
AISAT 19 Dec 21:58:36 22:02:54 54° 74° (ENE) 22:07:13 437.250
DX 1 19 Dec 22:02:08 22:06:13 40° 261° (W) 22:10:20 434.975-435.025
SO-50 19 Dec 22:06:27 22:10:40 39° 306° (NW) 22:15:03 436.795
CUBEBUG 1 19 Dec 22:09:10 22:12:41 24° 69° (ENE) 22:16:12 437.445
DELFI C3 19 Dec 22:10:34 22:14:09 29° 263° (W) 22:17:46 145.870
ANTELSAT 19 Dec 22:11:05 22:14:37 21° 94° (E) 22:18:09 437.575/2403.000
50 SAT 19 Dec 22:12:07 22:16:04 61° 75° (ENE) 22:20:03 437.505
POLYITAN 1 19 Dec 22:14:40 22:16:29 12° 92° (E) 22:18:19 437.675
CUSAT 1 19 Dec 22:15:38 22:22:19 31° 272° (W) 22:29:27 437.405
NANOSAT C BR1 19 Dec 22:17:36 22:19:39 13° 93° (E) 22:21:41 145.865
DOVE 4 19 Dec 22:20:20 22:21:39 11° 268° (W) 22:22:59 437.250
HUMSAT D 19 Dec 22:26:22 22:30:27 68° 259° (W) 22:34:37 437.325/437.525
Oscar 11 19 Dec 22:27:56 22:30:46 17° 266° (W) 22:33:37 145.826/435.025
